{"data":{"norad_id":60265,"epoch":"2026-09-21T07:42:53.101152Z","epoch_age_seconds":111241,"freshness":"FRESH","line1":"1 60265U 24131L   26264.32144793  .00000488  00000+0  25588-4 0  9994","line2":"2 60265  53.1601 223.5320 0001361  93.5826 266.5332 15.34395170121726","mean_motion":15.3439517,"eccentricity":0.0001361,"inclination_deg":53.1601,"raan_deg":223.532,"arg_perigee_deg":93.5826,"mean_anomaly_deg":266.5332,"bstar":2.5588e-5,"rev_number":12172,"period_min":93.848053497197,"perigee_km":461.78655571212,"apogee_km":463.64863633316,"semimajor_km":6840.8545960226,"source":"CELESTRAK","updated_at":"2026-09-22T09:00:49.188135Z"}}